Memphis, TN

8:20 AM CDT on March 24, 2017 (GMT -0500)
Memphis International

Weather History for KMEM - June, 2014

Change the Weather History Date:

Friday, June 27, 2014

  Actual Average Record
Temperature  
Mean Temperature 78 °F 82 °F  
Max Temperature 82 °F 91 °F 103 °F (1954)
Min Temperature 73 °F 73 °F 59 °F (1958)
Degree Days  
Heating Degree Days 0 0  
Month to date heating degree days 0 0  
Since 1 June heating degree days 0 0  
Since 1 July heating degree days 3484 2964  
Cooling Degree Days 13 17  
Month to date cooling degree days 392 389  
Year to date cooling degree days 703 710  
Since 1 June cooling degree days 392 389  
Growing Degree Days 28 (Base 50)    
Moisture  
Dew Point 70 °F    
Average Humidity 77    
Maximum Humidity 87    
Minimum Humidity 67    
Precipitation  
Precipitation T in 0.11 in 1.34 in (2013)
Month to date precipitation 6.31 3.27  
Year to date precipitation 32.27 27.55  
Snow  
Snow 0.00 in 0.00 in - ()
Month to date snowfall 0.0 0.0  
Since 1 June snowfall 0.0 0.0  
Since 1 July snowfall 0.8 3.8  
Snow Depth 0.00 in    
Sea Level Pressure  
Sea Level Pressure 30.02 in    
Wind  
Wind Speed 9 mph (SSW)    
Max Wind Speed 20 mph    
Max Gust Speed 25 mph    
Visibility 10 miles    
Events Rain    
T = Trace of Precipitation, MM = Missing Value Source: NWS Daily Summary

Daily Weather History Graph

Daily Weather History Graph

Search for Another Location

Airport or City:

Trip Planner

Search our weather history database for the weather conditions in past years. The results will help you decide how hot, cold, wet, or windy it might be!

Date:

Astronomy

Jun. 27, 2014 Rise Set
Actual Time 5:47 AM CDT 8:18 PM CDT
Civil Twilight 5:18 AM CDT 8:47 PM CDT
Nautical Twilight 4:41 AM CDT 9:24 PM CDT
Astronomical Twilight 4:00 AM CDT 10:04 PM CDT
Moon 6:14 AM CDT (6/27) 8:27 PM CDT (6/27)
Length of Visible Light 15h 29m
Length of Day
14h 30m
New Moon, 0% of the Moon is Illuminated
Jun 27
New Moon
Jul 5
First Quarter
Jul 12
Full
Jul 18
Last Quarter
Jul 26
New

Hourly Weather History & Observations

Time (CDT) Temp. Heat Index Dew Point Humidity Pressure Visibility Wind Dir Wind Speed Gust Speed Precip Events Conditions
12:54 AM 75.9 °F - 69.1 °F 79% 29.99 in 10.0 mi South 3.5 mph - N/A   Mostly Cloudy
1:13 AM 75.2 °F - 69.8 °F 83% 30.00 in 10.0 mi South 5.8 mph - N/A   Overcast
1:46 AM 75.2 °F - 69.8 °F 83% 30.01 in 10.0 mi SSW 5.8 mph - N/A   Mostly Cloudy
1:54 AM 75.0 °F - 70.0 °F 84% 29.99 in 10.0 mi South 8.1 mph - N/A   Mostly Cloudy
2:54 AM 73.9 °F - 70.0 °F 87% 29.96 in 10.0 mi SSW 6.9 mph - N/A   Mostly Cloudy
3:54 AM 75.0 °F - 70.0 °F 84% 29.96 in 10.0 mi ESE 4.6 mph - N/A   Mostly Cloudy
4:54 AM 75.0 °F - 70.0 °F 84% 29.98 in 10.0 mi SSE 9.2 mph - N/A   Mostly Cloudy
5:38 AM 73.4 °F - 69.8 °F 88% 30.01 in 10.0 mi South 5.8 mph - N/A   Scattered Clouds
5:50 AM 73.4 °F - 69.8 °F 88% 30.02 in 10.0 mi SSW 3.5 mph - N/A   Overcast
5:54 AM 73.0 °F - 70.0 °F 90% 30.01 in 10.0 mi SSW 4.6 mph - N/A   Overcast
6:05 AM 73.4 °F - 69.8 °F 88% 30.02 in 10.0 mi South 10.4 mph - N/A   Mostly Cloudy
6:31 AM 73.4 °F - 69.8 °F 88% 30.03 in 10.0 mi South 11.5 mph - N/A   Mostly Cloudy
6:49 AM 73.4 °F - 69.8 °F 88% 30.03 in 10.0 mi South 9.2 mph - N/A   Mostly Cloudy
6:54 AM 73.9 °F - 70.0 °F 87% 30.02 in 10.0 mi South 9.2 mph - N/A   Mostly Cloudy
7:35 AM 75.2 °F - 69.8 °F 83% 30.04 in 10.0 mi SSW 11.5 mph - N/A   Overcast
7:54 AM 75.0 °F - 70.0 °F 84% 30.04 in 10.0 mi SSW 9.2 mph - N/A   Overcast
7:56 AM 75.2 °F - 69.8 °F 83% 30.05 in 10.0 mi SSW 10.4 mph - N/A   Overcast
8:25 AM 75.2 °F - 69.8 °F 83% 30.06 in 10.0 mi South 12.7 mph - N/A   Overcast
8:54 AM 75.9 °F - 69.1 °F 79% 30.06 in 10.0 mi SSW 9.2 mph 18.4 mph N/A   Overcast
9:54 AM 75.0 °F - 69.1 °F 82% 30.07 in 10.0 mi SW 8.1 mph - N/A   Overcast
10:26 AM 77.0 °F - 69.8 °F 78% 30.07 in 10.0 mi SSW 8.1 mph - N/A   Overcast
10:54 AM 77.0 °F - 69.1 °F 76% 30.06 in 8.0 mi Variable 6.9 mph - 0.00 in Rain Light Rain
11:54 AM 78.1 °F - 71.1 °F 79% 30.06 in 10.0 mi South 9.2 mph - 0.00 in   Overcast
12:54 PM 81.0 °F 84.4 °F 70.0 °F 69% 30.04 in 10.0 mi SSW 13.8 mph 23.0 mph N/A   Mostly Cloudy
1:30 PM 80.6 °F 83.9 °F 69.8 °F 70% 30.05 in 10.0 mi SSW 15.0 mph 24.2 mph N/A   Mostly Cloudy
1:44 PM 78.8 °F - 69.8 °F 74% 30.05 in 10.0 mi SSW 15.0 mph 24.2 mph N/A   Mostly Cloudy
1:54 PM 80.1 °F 83.2 °F 70.0 °F 71% 30.04 in 10.0 mi South 15.0 mph 21.9 mph N/A   Mostly Cloudy
2:30 PM 80.6 °F 83.9 °F 69.8 °F 70% 30.04 in 10.0 mi SSW 16.1 mph 24.2 mph N/A   Mostly Cloudy
2:54 PM 80.1 °F 82.9 °F 69.1 °F 69% 30.02 in 10.0 mi SSW 10.4 mph 20.7 mph N/A   Mostly Cloudy
3:54 PM 79.0 °F - 68.0 °F 69% 30.01 in 10.0 mi SW 11.5 mph - N/A   Mostly Cloudy
4:54 PM 81.0 °F 83.8 °F 68.0 °F 65% 30.01 in 10.0 mi SSW 13.8 mph - N/A   Mostly Cloudy
5:52 PM 80.6 °F 83.9 °F 69.8 °F 70% 30.01 in 10.0 mi SSW 11.5 mph 18.4 mph N/A   Mostly Cloudy
5:54 PM 80.1 °F 82.9 °F 69.1 °F 69% 30.00 in 10.0 mi South 13.8 mph 18.4 mph N/A   Mostly Cloudy
6:54 PM 79.0 °F - 69.1 °F 72% 30.00 in 10.0 mi SSW 8.1 mph - N/A   Mostly Cloudy
7:54 PM 78.1 °F - 69.1 °F 74% 30.00 in 10.0 mi SSW 6.9 mph - N/A   Mostly Cloudy
8:54 PM 77.0 °F - 69.1 °F 76% 30.01 in 10.0 mi South 4.6 mph - N/A   Scattered Clouds
9:54 PM 75.9 °F - 69.1 °F 79% 30.03 in 10.0 mi South 8.1 mph - N/A   Overcast
10:54 PM 75.9 °F - 70.0 °F 82% 30.04 in 10.0 mi South 8.1 mph - N/A   Scattered Clouds
11:54 PM 75.0 °F - 70.0 °F 84% 30.03 in 10.0 mi South 6.9 mph - N/A   Partly Cloudy